Tracking 26321 objects as of 27-Nov-2022
HD Live streaming from Space Station
objects crossing your sky now

STARLINK-3967

Track STARLINK-3967 now!
10-day predictions
STARLINK-3967 is classified as:


NORAD ID: 52636
Int'l Code: 2022-052AQ
Perigee: 545.3 km
Apogee: 548.5 km
Inclination: 53.2 °
Period: 95.4 minutes
Semi major axis: 6917 km
RCS: Unknown
Launch date: May 14, 2022
Source: United States (US)
Launch site: AIR FORCE EASTERN TEST RANGE (AFETR)
aabbcc
Your satellite tracking list
Your tracking list is empty




NASA's NSSDC Master Catalog

Two Line Element Set (TLE):
1 52636U 22052AQ  22330.49429758  .00001089  00000-0  86508-4 0  9990
2 52636  53.2184 252.5128 0002302  34.5831 325.5311 15.08842468 29954
Source of the keplerian elements: AFSPC